Weather History for Idaho Falls, ID

Change the Weather History Date:

Friday, June 14, 2013

  Actual Average Record
Temperature  
Mean Temperature 54 °F 60 °F  
Max Temperature 66 °F 76 °F 92 °F (1987)
Min Temperature 41 °F 45 °F 33 °F (1981)
Degree Days  
Heating Degree Days 11 5  
Month to date heating degree days 54 95  
Since 1 June heating degree days 54 95  
Since 1 July heating degree days 7469 7786  
Cooling Degree Days 0 1  
Month to date cooling degree days 21 5  
Year to date cooling degree days 25 7  
Since 1 June cooling degree days 21 5  
Growing Degree Days 4 (Base 50)    
Moisture  
Dew Point 32 °F    
Average Humidity 45    
Maximum Humidity 65    
Minimum Humidity 25    
Precipitation  
Precipitation 0.00 in 0.04 in 0.44 in (1963)
Month to date precipitation 0.12 0.68  
Year to date precipitation 1.90 5.53  
Sea Level Pressure  
Sea Level Pressure 30.09 in    
Wind  
Wind Speed 15 mph (SSW)    
Max Wind Speed 26 mph    
Max Gust Speed 35 mph    
Visibility 10 miles    
Events      
T = Trace of Precipitation, MM = Missing Value Source: NWS Daily Summary

Daily Weather History Graph

Daily Weather History Graph

Search for Another Location

Airport:

Trip Planner

Search our weather history database for the weather conditions in past years. The results will help you decide how hot, cold, wet, or windy it might be!

Date:

Astronomy

Jun. 14, 2013 Rise Set
Actual Time 5:46 AM MDT 9:10 PM MDT
Civil Twilight 5:10 AM MDT 9:46 PM MDT
Nautical Twilight 4:24 AM MDT 10:33 PM MDT
Astronomical Twilight 3:25 AM MDT 11:32 PM MDT
Moon 11:34 AM MDT (6/14) 12:10 AM MDT (6/14)
Length of Visible Light 16h 35m
Length of Day
15h 24m
Waxing Crescent, 31% of the Moon is Illuminated
Jun 14
Waxing Crescent
Jun 16
First Quarter
Jun 23
Full
Jun 29
Last Quarter
Jul 8
New

Hourly Weather History & Observations

Time (MDT) Temp. Windchill Dew Point Humidity Pressure Visibility Wind Dir Wind Speed Gust Speed Precip Events Conditions
12:53 AM 54.0 °F - 35.1 °F 49% 29.96 in 10.0 mi South 15.0 mph - N/A   Clear
1:53 AM 51.1 °F - 35.1 °F 54% 30.00 in 10.0 mi South 19.6 mph - N/A   Clear
2:53 AM 50.0 °F - 33.1 °F 52% 30.01 in 10.0 mi South 15.0 mph - N/A   Mostly Cloudy
3:53 AM 48.9 °F - 34.0 °F 56% 30.01 in 10.0 mi South 18.4 mph - N/A   Partly Cloudy
4:53 AM 46.9 °F - 34.0 °F 61% 30.04 in 10.0 mi South 13.8 mph - N/A   Scattered Clouds
5:53 AM 44.1 °F 36.8 °F 33.1 °F 65% 30.08 in 10.0 mi SW 16.1 mph 25.3 mph N/A   Clear
6:53 AM 45.0 °F 37.6 °F 34.0 °F 65% 30.11 in 10.0 mi SW 17.3 mph 25.3 mph N/A   Clear
7:53 AM 48.0 °F - 34.0 °F 58% 30.13 in 10.0 mi SW 21.9 mph 31.1 mph N/A   Clear
8:53 AM 50.0 °F - 33.1 °F 52% 30.14 in 10.0 mi SW 25.3 mph 32.2 mph N/A   Scattered Clouds
9:53 AM 52.0 °F - 34.0 °F 50% 30.14 in 10.0 mi SSW 26.5 mph 34.5 mph N/A   Clear
10:53 AM 55.0 °F - 34.0 °F 45% 30.14 in 10.0 mi SSW 20.7 mph 27.6 mph N/A   Partly Cloudy
11:53 AM 57.0 °F - 35.1 °F 44% 30.15 in 10.0 mi SSW 19.6 mph 28.8 mph N/A   Scattered Clouds
12:53 PM 57.9 °F - 34.0 °F 41% 30.15 in 10.0 mi South 13.8 mph 24.2 mph N/A   Scattered Clouds
1:53 PM 60.1 °F - 32.0 °F 35% 30.14 in 10.0 mi SSW 12.7 mph 24.2 mph N/A   Scattered Clouds
2:53 PM 62.1 °F - 30.9 °F 31% 30.13 in 10.0 mi South 15.0 mph 21.9 mph N/A   Clear
3:53 PM 64.0 °F - 34.0 °F 33% 30.10 in 10.0 mi South 15.0 mph 24.2 mph N/A   Clear
4:53 PM 64.9 °F - 30.9 °F 28% 30.09 in 10.0 mi SSW 13.8 mph 25.3 mph N/A   Clear
5:53 PM 64.9 °F - 30.0 °F 27% 30.09 in 10.0 mi South 12.7 mph 21.9 mph N/A   Clear
6:53 PM 64.9 °F - 28.9 °F 26% 30.07 in 10.0 mi SSW 13.8 mph 20.7 mph N/A   Clear
7:53 PM 63.0 °F - 27.0 °F 26% 30.07 in 10.0 mi SSW 13.8 mph - N/A   Clear
8:53 PM 60.1 °F - 28.9 °F 31% 30.08 in 10.0 mi SSW 9.2 mph - N/A   Clear
9:53 PM 57.0 °F - 30.0 °F 36% 30.09 in 10.0 mi South 8.1 mph - N/A   Clear
10:53 PM 54.0 °F - 28.9 °F 38% 30.11 in 10.0 mi SSE 4.6 mph - N/A   Clear
11:53 PM 52.0 °F - 28.0 °F 40% 30.10 in 10.0 mi Calm Calm - N/A   Clear